SHT22A EGLL-EGJB

Flight info

Callsign SHT22A
Flight time 0h 45m
Altitude 19000
Route GASGU N866 SAM/N0363F180 N63 LELNA
Aircraft A20N/M-SDE2E3FGHIRWXY/LB1

Departure

Time 2026-04-22 19:32
Airport London Heathrow Airport (EGLL)

Arrival

Time 2026-04-22 20:18
Airport Guernsey Airport (EGJB)
Time Latitude Longitude Altitude Speed Heading
2026-04-22 18:54 51.46927 -0.48715 91 ft 0 kts
2026-04-22 19:16 51.46923 -0.48715 91 ft 2 kts
2026-04-22 19:16 51.46908 -0.48711 91 ft 2 kts 338°
2026-04-22 19:16 51.46895 -0.48700 91 ft 2 kts 321°
2026-04-22 19:16 51.46885 -0.48683 91 ft 2 kts 304°
2026-04-22 19:17 51.46878 -0.48662 91 ft 2 kts 287°
2026-04-22 19:17 51.46875 -0.48642 91 ft 0 kts 272°
2026-04-22 19:17 51.46876 -0.48631 91 ft 0 kts 269°
2026-04-22 19:22 51.46875 -0.48639 91 ft 2 kts 269°
2026-04-22 19:22 51.46875 -0.48683 91 ft 5 kts 270°
2026-04-22 19:22 51.46860 -0.48744 91 ft 6 kts 210°
2026-04-22 19:22 51.46808 -0.48751 91 ft 8 kts 179°
2026-04-22 19:23 51.46747 -0.48749 91 ft 8 kts 181°
2026-04-22 19:23 51.46683 -0.48748 91 ft 9 kts 180°
2026-04-22 19:23 51.46621 -0.48757 91 ft 7 kts 194°
2026-04-22 19:23 51.46598 -0.48769 91 ft 0 kts 198°
2026-04-22 19:28 51.46593 -0.48771 91 ft 1 kts 198°
2026-04-22 19:29 51.46569 -0.48783 91 ft 5 kts 194°
2026-04-22 19:29 51.46529 -0.48789 91 ft 6 kts 179°
2026-04-22 19:29 51.46489 -0.48747 91 ft 7 kts 122°
2026-04-22 19:29 51.46477 -0.48664 91 ft 3 kts 90°
2026-04-22 19:30 51.46477 -0.48662 91 ft 0 kts 90°
2026-04-22 19:31 51.46477 -0.48644 91 ft 7 kts 90°
2026-04-22 19:32 51.46479 -0.48132 91 ft 83 kts 90°
2026-04-22 19:32 51.46482 -0.46860 91 ft 144 kts 90°
2026-04-22 19:32 51.46485 -0.45143 568 ft 156 kts 90°
2026-04-22 19:32 51.46496 -0.43417 1338 ft 157 kts 89°
2026-04-22 19:33 51.46476 -0.41748 2177 ft 152 kts 99°
2026-04-22 19:33 51.46088 -0.40102 2625 ft 169 kts 119°
2026-04-22 19:33 51.45298 -0.38595 3058 ft 188 kts 130°
2026-04-22 19:33 51.44472 -0.36864 3456 ft 207 kts 121°
2026-04-22 19:34 51.43628 -0.34890 4003 ft 224 kts 130°
2026-04-22 19:34 51.42250 -0.33583 4498 ft 250 kts 164°
2026-04-22 19:34 51.40470 -0.33409 5255 ft 259 kts 175°
2026-04-22 19:34 51.38678 -0.33513 5749 ft 265 kts 187°
2026-04-22 19:35 51.36974 -0.34734 5983 ft 276 kts 213°
2026-04-22 19:35 51.35541 -0.36844 5994 ft 278 kts 222°
2026-04-22 19:35 51.34644 -0.38334 5990 ft 278 kts 222°
2026-04-22 19:35 51.32837 -0.41231 5989 ft 277 kts 219°
2026-04-22 19:36 51.31357 -0.43162 5989 ft 274 kts 212°
2026-04-22 19:36 51.29968 -0.45312 5974 ft 282 kts 234°
2026-04-22 19:36 51.29266 -0.48231 5990 ft 288 kts 257°
2026-04-22 19:36 51.28956 -0.51395 5989 ft 289 kts 259°
2026-04-22 19:37 51.28592 -0.54568 5987 ft 288 kts 256°
2026-04-22 19:37 51.28131 -0.57675 5984 ft 287 kts 252°
2026-04-22 19:37 51.27610 -0.60749 5978 ft 288 kts 256°
2026-04-22 19:37 51.27271 -0.63991 5986 ft 309 kts 261°
2026-04-22 19:38 51.26990 -0.67414 5984 ft 318 kts 260°
2026-04-22 19:38 51.26719 -0.70886 5981 ft 320 kts 261°
2026-04-22 19:38 51.26449 -0.74389 5979 ft 320 kts 261°
2026-04-22 19:38 51.26177 -0.77933 5978 ft 320 kts 261°
2026-04-22 19:39 51.25906 -0.81453 5977 ft 320 kts 261°
2026-04-22 19:39 51.25634 -0.84979 5976 ft 320 kts 261°
2026-04-22 19:39 51.25362 -0.88486 6013 ft 323 kts 261°
2026-04-22 19:39 51.25084 -0.92065 6605 ft 330 kts 261°
2026-04-22 19:40 51.24800 -0.95645 7807 ft 322 kts 259°
2026-04-22 19:40 51.24116 -0.98903 8993 ft 306 kts 232°
2026-04-22 19:40 51.22675 -1.01195 10144 ft 290 kts 213°
2026-04-22 19:40 51.21041 -1.03026 10918 ft 294 kts 211°
2026-04-22 19:41 51.19299 -1.04940 11355 ft 312 kts 212°
2026-04-22 19:41 51.17506 -1.07009 11732 ft 330 kts 213°
2026-04-22 19:41 51.15608 -1.09299 12081 ft 349 kts 214°
2026-04-22 19:41 51.13642 -1.11734 12395 ft 367 kts 216°
2026-04-22 19:42 51.11588 -1.14315 12725 ft 383 kts 216°
2026-04-22 19:42 51.09495 -1.16962 13307 ft 389 kts 216°
2026-04-22 19:42 51.07375 -1.19647 13992 ft 393 kts 217°
2026-04-22 19:42 51.05217 -1.22372 14647 ft 397 kts 217°
2026-04-22 19:43 51.00841 -1.27890 15297 ft 403 kts 218°
2026-04-22 19:43 50.98638 -1.30672 15303 ft 403 kts 217°
2026-04-22 19:43 50.96387 -1.33285 15305 ft 403 kts 213°
2026-04-22 19:44 50.94023 -1.35635 15303 ft 402 kts 209°
2026-04-22 19:44 50.91564 -1.37721 15303 ft 402 kts 206°
2026-04-22 19:44 50.89063 -1.39711 15302 ft 402 kts 206°
2026-04-22 19:44 50.86546 -1.41709 15310 ft 404 kts 206°
2026-04-22 19:45 50.84881 -1.43030 15478 ft 409 kts 206°
2026-04-22 19:45 50.81488 -1.45723 16382 ft 411 kts 206°
2026-04-22 19:45 50.78906 -1.47773 17019 ft 414 kts 207°
2026-04-22 19:45 50.76334 -1.49816 17575 ft 418 kts 207°
2026-04-22 19:46 50.73764 -1.51856 18112 ft 422 kts 207°
2026-04-22 19:46 50.71127 -1.53947 18675 ft 425 kts 207°
2026-04-22 19:46 50.68490 -1.56034 19230 ft 429 kts 207°
2026-04-22 19:46 50.65802 -1.58159 19797 ft 432 kts 207°
2026-04-22 19:47 50.63112 -1.60282 20184 ft 436 kts 207°
2026-04-22 19:47 50.60411 -1.62413 20297 ft 436 kts 207°
2026-04-22 19:47 50.58621 -1.63823 20290 ft 436 kts 207°
2026-04-22 19:47 50.55000 -1.66672 20283 ft 435 kts 207°
2026-04-22 19:48 50.52274 -1.68813 20284 ft 436 kts 207°
2026-04-22 19:48 50.49572 -1.70932 20279 ft 435 kts 207°
2026-04-22 19:48 50.46866 -1.73051 20270 ft 435 kts 207°
2026-04-22 19:48 50.44174 -1.75158 20271 ft 434 kts 206°
2026-04-22 19:49 50.41465 -1.77274 20265 ft 435 kts 206°
2026-04-22 19:49 50.38776 -1.79373 20259 ft 434 kts 206°
2026-04-22 19:49 50.36081 -1.81472 20251 ft 434 kts 206°
2026-04-22 19:49 50.33377 -1.83575 20250 ft 434 kts 206°
2026-04-22 19:50 50.30676 -1.85673 20252 ft 434 kts 206°
2026-04-22 19:50 50.27973 -1.87771 20254 ft 434 kts 206°
2026-04-22 19:50 50.25301 -1.89841 20256 ft 435 kts 206°
2026-04-22 19:50 50.22584 -1.91945 20258 ft 434 kts 206°
2026-04-22 19:51 50.19895 -1.94025 20259 ft 434 kts 206°
2026-04-22 19:51 50.17180 -1.96122 20260 ft 434 kts 206°
2026-04-22 19:51 50.14480 -1.98205 20149 ft 434 kts 206°
2026-04-22 19:51 50.11812 -2.00261 19900 ft 432 kts 206°
2026-04-22 19:52 50.09118 -2.02334 19630 ft 430 kts 206°
2026-04-22 19:52 50.06462 -2.04374 19297 ft 427 kts 206°
2026-04-22 19:52 50.03791 -2.06424 18868 ft 425 kts 206°
2026-04-22 19:52 50.01177 -2.08445 18341 ft 422 kts 207°
2026-04-22 19:53 49.98696 -2.10862 17765 ft 420 kts 216°
2026-04-22 19:53 49.96511 -2.13739 17193 ft 417 kts 224°
2026-04-22 19:53 49.95190 -2.15901 16817 ft 415 kts 227°
2026-04-22 19:53 49.92645 -2.20360 16071 ft 410 kts 229°
2026-04-22 19:54 49.90787 -2.23653 15521 ft 407 kts 229°
2026-04-22 19:54 49.88932 -2.26923 14964 ft 403 kts 229°
2026-04-22 19:54 49.87075 -2.30178 14416 ft 400 kts 228°
2026-04-22 19:54 49.85243 -2.33378 13862 ft 397 kts 228°
2026-04-22 19:55 49.83417 -2.36557 13309 ft 393 kts 228°
2026-04-22 19:55 49.81615 -2.39692 12754 ft 391 kts 228°
2026-04-22 19:55 49.79815 -2.42815 12187 ft 388 kts 227°
2026-04-22 19:55 49.78024 -2.45917 11662 ft 384 kts 227°
2026-04-22 19:56 49.76284 -2.48929 11369 ft 373 kts 227°
2026-04-22 19:56 49.74571 -2.51889 11146 ft 360 kts 227°
2026-04-22 19:56 49.72942 -2.54696 10898 ft 349 kts 227°
2026-04-22 19:56 49.71328 -2.57432 10700 ft 337 kts 224°
2026-04-22 19:57 49.69652 -2.59836 10525 ft 325 kts 221°
2026-04-22 19:57 49.67992 -2.62146 10270 ft 317 kts 221°
2026-04-22 19:57 49.66494 -2.64545 10074 ft 309 kts 229°
2026-04-22 19:57 49.65147 -2.67085 9898 ft 299 kts 230°
2026-04-22 19:58 49.63872 -2.69572 9725 ft 295 kts 230°
2026-04-22 19:58 49.62611 -2.72046 9549 ft 295 kts 230°
2026-04-22 19:58 49.61359 -2.74512 9306 ft 289 kts 230°
2026-04-22 19:58 49.60122 -2.76932 8974 ft 286 kts 230°
2026-04-22 19:59 49.58908 -2.79328 8650 ft 283 kts 230°
2026-04-22 20:00 49.50192 -2.89450 6098 ft 246 kts 210°
2026-04-22 20:00 49.48799 -2.90913 5852 ft 235 kts 210°
2026-04-22 20:01 49.47482 -2.92320 5470 ft 231 kts 210°
2026-04-22 20:01 49.46187 -2.93721 5024 ft 228 kts 207°
2026-04-22 20:01 49.44762 -2.94599 4532 ft 216 kts 176°
2026-04-22 20:01 49.43373 -2.94134 4096 ft 203 kts 142°
2026-04-22 20:02 49.42511 -2.92545 3852 ft 192 kts 107°
2026-04-22 20:02 49.42412 -2.90545 3662 ft 187 kts 88°
2026-04-22 20:02 49.42564 -2.88609 3460 ft 182 kts 85°
2026-04-22 20:02 49.42726 -2.86718 3258 ft 172 kts 88°
2026-04-22 20:03 49.42825 -2.85031 3242 ft 145 kts 90°
2026-04-22 20:03 49.42884 -2.83526 3123 ft 138 kts 91°
2026-04-22 20:03 49.42926 -2.82091 2961 ft 131 kts 91°
2026-04-22 20:03 49.42961 -2.80714 2775 ft 129 kts 91°
2026-04-22 20:04 49.42994 -2.79338 2595 ft 128 kts 92°
2026-04-22 20:04 49.43028 -2.77966 2417 ft 128 kts 91°
2026-04-22 20:04 49.43062 -2.76607 2244 ft 128 kts 91°
2026-04-22 20:04 49.43096 -2.75254 2074 ft 127 kts 91°
2026-04-22 20:05 49.43131 -2.73890 1904 ft 127 kts 90°
2026-04-22 20:05 49.43166 -2.72540 1738 ft 127 kts 90°
2026-04-22 20:05 49.43200 -2.71194 1571 ft 126 kts 90°
2026-04-22 20:05 49.43235 -2.69846 1402 ft 126 kts 89°
2026-04-22 20:06 49.43273 -2.68507 1216 ft 125 kts 88°
2026-04-22 20:06 49.43314 -2.67187 978 ft 125 kts 87°
2026-04-22 20:06 49.43357 -2.65864 862 ft 124 kts 88°
2026-04-22 20:06 49.43373 -2.64479 1224 ft 134 kts 90°
2026-04-22 20:07 49.43385 -2.63082 1993 ft 133 kts 92°
2026-04-22 20:07 49.43403 -2.61679 2611 ft 137 kts 91°
2026-04-22 20:07 49.43431 -2.60099 2960 ft 161 kts 91°
2026-04-22 20:07 49.43464 -2.58278 2989 ft 177 kts 91°
2026-04-22 20:08 49.43430 -2.56342 2964 ft 188 kts 103°
2026-04-22 20:08 49.42740 -2.54599 2905 ft 200 kts 139°
2026-04-22 20:08 49.41417 -2.53829 2960 ft 214 kts 171°
2026-04-22 20:08 49.39902 -2.54171 2994 ft 223 kts 187°
2026-04-22 20:09 49.38417 -2.54840 2992 ft 224 kts 189°
2026-04-22 20:09 49.36999 -2.55901 2973 ft 236 kts 215°
2026-04-22 20:09 49.36059 -2.58014 2979 ft 249 kts 247°
2026-04-22 20:09 49.35687 -2.60612 2997 ft 253 kts 258°
2026-04-22 20:10 49.35457 -2.63309 2975 ft 251 kts 260°
2026-04-22 20:10 49.35262 -2.65912 2833 ft 243 kts 260°
2026-04-22 20:10 49.35076 -2.68438 2679 ft 236 kts 260°
2026-04-22 20:10 49.34898 -2.70874 2528 ft 228 kts 260°
2026-04-22 20:11 49.34727 -2.73245 2432 ft 216 kts 260°
2026-04-22 20:11 49.34573 -2.75466 2268 ft 207 kts 260°
2026-04-22 20:11 49.34419 -2.77651 2006 ft 206 kts 260°
2026-04-22 20:11 49.34263 -2.79843 1992 ft 208 kts 261°
2026-04-22 20:12 49.34122 -2.82053 1988 ft 210 kts 266°
2026-04-22 20:12 49.34540 -2.84166 1955 ft 208 kts 313°
2026-04-22 20:12 49.35298 -2.85014 1965 ft 199 kts 347°
2026-04-22 20:12 49.36990 -2.84819 2003 ft 182 kts 25°
2026-04-22 20:13 49.38206 -2.84294 1989 ft 183 kts 24°
2026-04-22 20:13 49.39428 -2.83779 1986 ft 183 kts 24°
2026-04-22 20:13 49.40668 -2.83261 1987 ft 183 kts 24°
2026-04-22 20:13 49.41884 -2.82710 1981 ft 178 kts 33°
2026-04-22 20:14 49.42685 -2.81483 1972 ft 161 kts 72°
2026-04-22 20:14 49.42920 -2.79841 1991 ft 154 kts 86°
2026-04-22 20:14 49.43008 -2.78287 1962 ft 138 kts 89°
2026-04-22 20:14 49.43056 -2.76826 1971 ft 137 kts 90°
2026-04-22 20:15 49.43093 -2.75378 2004 ft 132 kts 90°
2026-04-22 20:15 49.43129 -2.74005 1927 ft 128 kts 90°
2026-04-22 20:15 49.43163 -2.72647 1753 ft 126 kts 90°
2026-04-22 20:15 49.43198 -2.71303 1583 ft 126 kts 90°
2026-04-22 20:16 49.43223 -2.69978 1408 ft 125 kts 90°
2026-04-22 20:16 49.43249 -2.68639 1242 ft 125 kts 89°
2026-04-22 20:16 49.43301 -2.67306 1072 ft 125 kts 88°
2026-04-22 20:16 49.43341 -2.65983 901 ft 124 kts 88°
2026-04-22 20:17 49.43374 -2.64671 724 ft 124 kts 87°
2026-04-22 20:17 49.43410 -2.63357 566 ft 123 kts 87°
2026-04-22 20:17 49.43447 -2.62032 408 ft 122 kts 86°
2026-04-22 20:17 49.43482 -2.60741 311 ft 113 kts 87°
2026-04-22 20:18 49.43508 -2.59797 333 ft 64 kts 86°
2026-04-22 20:18 49.43520 -2.59382 338 ft 24 kts 87°
2026-04-22 20:18 49.43516 -2.59236 339 ft 9 kts 121°
2026-04-22 20:18 49.43459 -2.59198 339 ft 9 kts 177°
2026-04-22 20:19 49.43407 -2.59201 339 ft 6 kts 194°
2026-04-22 20:19 49.43373 -2.59248 339 ft 7 kts 248°
2026-04-22 20:19 49.43370 -2.59340 339 ft 9 kts 269°
2026-04-22 20:19 49.43367 -2.59455 338 ft 11 kts 266°
2026-04-22 20:20 49.43363 -2.59567 337 ft 10 kts 266°
2026-04-22 20:20 49.43341 -2.59625 336 ft 7 kts 190°
2026-04-22 20:20 49.43285 -2.59623 336 ft 6 kts 177°
2026-04-22 20:20 49.43259 -2.59622 336 ft 2 kts 178°
2026-04-22 20:21 49.43255 -2.59622 336 ft 0 kts 178°